Location: Unspecified
(0.0000°N, 0.0000°E)
Time: 23:27:19
(UTC+00:00)

ISS - Visible Passes

Search period start: 23 February 2017 00:00
Search period end: 05 March 2017 00:00
Orbit: 399 x 408 km, 51.6° (Epoch: 24 February)

Date Brightness Start Highest point End Pass type
(mag) Time Alt. Az. Time Alt. Az. Time Alt. Az.
23 Feb 0.2 05:11:50 10° SE 05:12:49 11° SE 05:13:48 10° ESE visible
25 Feb -1.9 05:01:04 10° SSW 05:04:10 39° SE 05:07:15 10° NE visible
26 Feb -0.1 04:12:17 14° ESE 04:12:17 14° ESE 04:13:38 10° E visible
26 Feb -1.6 05:45:48 10° W 05:47:56 16° NW 05:50:03 10° NNW visible
27 Feb -2.1 04:56:36 29° N 04:56:36 29° N 04:58:33 10° NNE visible
